THOR ABLESTAR DEB, 548

Orbit data source: Space-Track

THOR ABLESTAR DEB, 548 is space debris in LEO originally from a launch on Thu, 29 Jun 1961 UTC launched from the Air Force Eastern Test Range (AFETR). Debris objects in space refer to the collection of defunct objects orbiting the Earth. Examples of debris include non-operational satellites, rocket bodies, and fragments generated from explosions, collisions, or faulty payload assembly.

Loading next visibility...
Identifier
548, 1961-015GH
Orbit
LEO
Country
Flag of USUS
Related business
Manufacturer
Unknown
Mission
Spacecraft
Bus & Motor
Unknown
Mass
Unknown
Launch date (UTC)
1961-06-29 (65 years ago)
Launch vehicle
Unknown
Launch site
Air Force Eastern Test Range (AFETR)
Object type
Payload
Rocket body
Debris
Shape & HBR
Unknown shape, 0.1 m
Radar Cross Section
Medium (>0.1 m² and <1 m²)

Expand to show TLE details & history
Last TLE update: 17 hours ago

TLE from 17 hours ago
0 THOR ABLESTAR DEB
1 00548U 61015GH  26174.70190130  .00001741  00000-0  25291-3 0  9996
2 00548  66.6694 288.0854 0088556 112.2328 248.8216 14.76119045404784
Epoch: 2026-06-23T16:50Z
TLE epoch observation values (Epoch: 2026-06-23T16:50:44.272Z)
Latitude
-0.00005°
Longitude
123.53123°
Altitude
666.689 km
Speed
7.512 km/s
True Right ascension
19h 12m 20s
True Declination
0° 00' 00"
Sunlit
Object was in full shadow at epoch
Visualization orbit readout
Latitude
Unknown
Longitude
Unknown
Altitude
Unknown
Speed
Unknown
Apparent Right ascension
Unknown
Apparent Declination
Unknown
Sunlit
N/A
Visualization observer readout
Local Sidereal Time
20:44:30
Azimuth
Unknown
Elevation
Unknown
Doppler factor
Unknown
Orbital elements
Apogee altitude
702.094 km
Perigee altitude
577.795 km
Semi-major axis
7,018.082 km
Eccentricity
0.00886
Inclination
66.6694°
RAAN
288.0854°
Arg. of periapsis
112.2328°
True anomaly
247.87917°
Mean anomaly
248.8216°
Eccentric anomaly
248.35001°
Mean motion
3.69161 °/min
Orbital period
97.52 mins
BSTAR
0.00025291
Loading maneuver chart data...
Computing Atmospheric mass density...
Loading historical data...
Loading historical data...
Loading historical data...
Loading historical data...
Loading historical data...
Loading historical data...
Loading historical data...

Documentation

Showing up to 5 results
|